FW5443 Weather Reports


time (UTC)temp
F
wind
direction
speed
knots
gust
knots
rain 1hr
in
rain 24hr
in
rain mn
in
humidity
%
barometer
mb
20260507085529 51 0 0.0 2.6 0.00 0.00 0.00 87 1007.7
20260507085029 51 119 0.0 2.6 0.00 0.00 0.00 87 1007.6
20260507084544 51 50 0.0 2.6 0.00 0.00 0.00 88 1007.8
20260507084029 52 232 0.0 2.6 0.00 0.00 0.00 88 1007.7
20260507083529 52 0 0.0 0.9 0.00 0.00 0.00 88 1007.6
20260507083044 52 91 0.0 1.7 0.00 0.00 0.00 88 1007.5
20260507082528 52 0 0.0 1.7 0.00 0.00 0.00 87 1007.3
20260507082028 52 0 0.0 2.6 0.00 0.00 0.00 87 1007.1
20260507081542 52 0 0.0 2.6 0.00 0.00 0.00 87 1007.1
20260507081033 52 171 0.0 2.6 0.00 0.00 0.00 86 1007.1
20260507080529 53 0 0.0 2.6 0.00 0.00 0.00 86 1007.3
20260507080044 53 0 0.0 3.5 0.00 0.00 0.00 85 1007.5
20260507075529 53 0 0.0 3.5 0.00 0.00 0.00 85 1007.6
20260507075029 53 0 0.0 2.6 0.00 0.00 0.00 84 1007.4
20260507074547 53 0 0.0 2.6 0.00 0.00 0.00 84 1007.3
20260507074030 53 0 0.0 1.7 0.00 0.00 0.00 83 1007.6
20260507073529 53 0 0.0 1.7 0.00 0.00 0.00 83 1007.7
20260507073049 53 0 0.0 1.7 0.00 0.00 0.00 83 1007.3
20260507072529 53 0 0.0 1.7 0.00 0.00 0.00 83 1006.7
20260507072028 53 0 0.0 1.7 0.00 0.00 0.00 83 1006.6
20260507071543 53 0 0.0 1.7 0.00 0.00 0.00 83 1006.8
20260507071029 53 0 0.0 0.9 0.00 0.00 0.00 83 1006.8
20260507070530 53 0 0.0 0.9 0.00 0.00 0.00 83 1006.8
20260507070051 53 0 0.0 1.7 0.00 0.00 0.00 83 1007.0
20260507065533 53 0 0.0 2.6 0.00 0.00 0.00 83 1006.7
20260507065028 53 0 0.0 2.6 0.00 0.00 0.00 83 1006.7
20260507064546 53 150 0.0 3.5 0.00 0.00 0.00 84 1006.8
20260507064032 53 0 0.0 3.5 0.00 0.00 0.00 84 1006.8
20260507063530 53 360 0.9 3.5 0.00 0.00 0.00 84 1006.9
20260507063041 53 0 0.0 4.3 0.00 0.00 0.00 85 1006.7
20260507062529 54 15 0.0 4.3 0.00 0.00 0.00 85 1006.9
20260507062029 54 46 0.9 2.6 0.00 0.00 0.00 86 1006.7
20260507061544 55 35 0.0 3.5 0.00 0.00 0.00 88 1006.5
20260507061029 55 0 0.9 3.5 0.00 0.00 0.00 88 1006.6
20260507060529 55 0 0.0 3.5 0.00 0.00 0.00 88 1006.6
20260507060045 55 0 0.0 3.5 0.00 0.00 0.00 88 1006.6
20260507055526 55 360 0.0 1.7 0.00 0.00 0.00 88 1006.7
20260507055028 55 0 0.0 1.7 0.00 0.00 0.00 88 1006.8
20260507054541 55 0 0.0 2.6 0.00 0.00 0.00 88 1006.9
20260507054029 55 270 0.0 2.6 0.00 0.00 0.00 88 1006.9
20260507053530 55 306 0.0 3.5 0.00 0.00 0.00 89 1007.1
20260507053041 55 52 0.0 3.5 0.00 0.00 0.00 89 1007.0
20260507052525 55 0 0.0 3.5 0.00 0.00 0.00 89 1006.9
20260507052029 55 107 0.0 2.6 0.00 0.00 0.00 89 1006.9
20260507051542 55 0 0.0 2.6 0.00 0.00 0.00 89 1006.6
20260507051029 55 96 0.0 4.3 0.00 0.00 0.00 89 1006.7
20260507050529 55 0 0.0 4.3 0.00 0.00 0.00 89 1006.6
20260507050047 56 177 0.0 3.5 0.00 0.00 0.00 89 1006.8
20260507045530 56 57 0.9 2.6 0.00 0.00 0.00 89 1007.0
20260507045027 56 205 0.0 2.6 0.00 0.00 0.00 90 1007.0
20260507044556 56 0 0.0 2.6 0.00 0.00 0.00 89 1007.0
20260507044032 57 0 0.0 5.2 0.00 0.00 0.00 89 1006.8
20260507043528 58 45 0.9 5.2 0.00 0.00 0.00 90 1006.7
20260507043042 58 51 0.9 3.5 0.00 0.00 0.00 91 1006.6
20260507042526 59 69 0.0 3.5 0.00 0.00 0.00 92 1006.8
20260507042031 59 0 0.9 3.5 0.00 0.00 0.00 92 1006.8
20260507041545 59 96 0.0 2.6 0.00 0.00 0.00 92 1006.7
20260507041029 59 5 0.0 2.6 0.00 0.00 0.00 92 1006.7
20260507040528 59 15 0.0 1.7 0.00 0.00 0.00 92 1006.8
20260507040045 59 0 0.0 3.5 0.00 0.00 0.00 91 1006.9
20260507035531 59 0 0.0 3.5 0.00 0.00 0.00 91 1006.8
20260507035029 59 63 0.0 3.5 0.00 0.00 0.00 91 1006.7
20260507034546 59 187 0.9 3.5 0.00 0.00 0.00 91 1006.4
20260507034029 59 162 0.0 3.5 0.00 0.00 0.00 91 1006.6
20260507033529 59 0 0.9 7.0 0.00 0.00 0.00 91 1006.3
20260507033057 59 144 1.7 7.0 0.00 0.00 0.00 92 1006.7
20260507032530 59 0 0.0 4.3 0.00 0.00 0.00 92 1006.5
20260507032038 59 147 0.9 4.3 0.00 0.00 0.00 92 1006.3
20260507031554 59 0 0.9 4.3 0.00 0.00 0.00 92 1006.0
20260507031026 59 167 0.9 4.3 0.00 0.00 0.00 92 1005.9
20260507030530 59 175 0.9 4.3 0.00 0.00 0.00 92 1005.8
20260507025529 59 178 0.9 5.2 0.00 0.00 0.00 92 1005.6
20260507025029 59 119 0.0 5.2 0.00 0.00 0.00 92 1005.7
20260507024601 59 0 0.0 6.1 0.00 0.00 0.00 92 1005.8
20260507024030 59 181 0.9 6.1 0.00 0.00 0.00 92 1005.8
20260507023528 59 175 0.9 5.2 0.00 0.00 0.00 92 1005.9
20260507023044 59 127 0.0 5.2 0.00 0.00 0.00 92 1006.0
20260507022529 59 5 0.9 4.3 0.00 0.00 0.00 92 1005.9
20260507022029 59 126 0.0 4.3 0.00 0.00 0.00 92 1006.0
20260507021552 59 174 0.9 6.1 0.00 0.00 0.00 92 1006.0
20260507021033 59 151 0.9 6.1 0.00 0.00 0.00 91 1006.0
20260507020530 59 152 0.9 5.2 0.00 0.00 0.00 92 1005.9
20260507020054 59 151 0.9 5.2 0.00 0.00 0.00 91 1005.9
20260507015530 59 0 0.9 3.5 0.00 0.00 0.00 91 1005.9
20260507015029 59 0 0.9 3.5 0.00 0.00 0.00 91 1006.0
20260507014552 59 228 0.9 5.2 0.00 0.00 0.00 91 1006.1
20260507014030 59 22 0.0 5.2 0.00 0.00 0.00 91 1006.0
20260507013530 59 207 0.9 3.5 0.00 0.00 0.00 91 1006.1
20260507013043 59 67 0.9 6.1 0.00 0.00 0.00 91 1006.0
20260507012532 59 305 1.7 7.0 0.00 0.00 0.00 91 1006.0
20260507012028 59 154 1.7 7.0 0.00 0.00 0.00 91 1006.2
20260507011549 59 192 0.9 6.1 0.00 0.00 0.00 91 1006.1
20260507011031 59 134 0.9 6.1 0.00 0.00 0.00 91 1006.2
20260507010529 59 153 0.0 6.1 0.00 0.00 0.00 91 1006.2
20260507010046 59 161 0.9 6.1 0.00 0.00 0.00 91 1006.2
20260507005530 59 153 0.9 3.5 0.00 0.00 0.00 91 1006.3
20260507005034 59 153 0.0 8.7 0.00 0.00 0.00 91 1006.3
20260507004543 59 182 1.7 10.4 0.00 0.00 0.00 91 1006.2
20260507004031 59 0 0.9 10.4 0.00 0.00 0.00 91 1006.2
20260507003531 59 169 1.7 6.1 0.00 0.00 0.00 91 1006.1
20260507003042 59 0 1.7 6.1 0.00 0.00 0.00 91 1006.2
20260507002529 59 124 0.0 6.1 0.00 0.00 0.00 91 1006.2
20260507002030 59 204 1.7 6.1 0.00 0.00 0.00 90 1006.2
20260507001541 59 0 0.9 3.5 0.00 0.00 0.00 90 1006.2
20260507001028 59 205 0.0 4.3 0.00 0.00 0.00 90 1006.2
20260507000528 59 136 0.9 7.0 0.00 0.00 0.00 90 1005.9
20260507000040 60 149 1.7 7.0 0.00 0.00 0.00 90 1006.0
20260506235529 60 155 1.7 6.1 0.00 0.00 0.00 90 1006.0
20260506235028 60 0 0.9 6.1 0.00 0.00 0.00 90 1006.1
20260506234553 60 196 1.7 6.1 0.00 0.00 0.00 90 1006.1
20260506234034 60 172 0.0 5.2 0.00 0.00 0.00 90 1006.0
20260506233531 60 0 0.9 7.0 0.00 0.00 0.00 90 1006.1
20260506233049 60 0 0.9 7.8 0.00 0.00 0.00 90 1006.1
20260506232532 60 205 0.0 7.8 0.00 0.00 0.00 90 1006.1
20260506232030 60 0 0.9 8.7 0.00 0.00 0.00 90 1006.0
20260506231554 60 248 0.0 8.7 0.00 0.00 0.00 90 1006.0
20260506231029 60 163 1.7 8.7 0.00 0.00 0.00 89 1006.1
20260506230531 60 163 1.7 6.1 0.00 0.00 0.00 89 1006.2
20260506230042 60 173 0.9 6.1 0.00 0.00 0.00 89 1006.1
20260506225529 60 155 0.9 6.1 0.00 0.00 0.00 89 1006.2
20260506225032 61 178 0.9 6.1 0.00 0.00 0.00 89 1006.2
20260506224544 61 235 0.9 6.1 0.00 0.00 0.00 89 1006.2
20260506224029 61 62 0.9 5.2 0.00 0.00 0.00 89 1006.2
20260506223535 61 208 0.9 5.2 0.00 0.00 0.00 89 1006.3
20260506223042 61 198 0.9 8.7 0.00 0.00 0.00 89 1006.5
20260506222530 61 0 0.9 8.7 0.00 0.00 0.00 88 1006.4
20260506222027 61 200 0.9 8.7 0.00 0.00 0.00 88 1006.5
20260506221545 61 0 0.9 4.3 0.00 0.00 0.00 88 1006.5
20260506221033 61 219 0.9 6.1 0.00 0.00 0.00 87 1006.6
20260506220530 61 0 0.9 6.1 0.00 0.00 0.00 87 1006.5
20260506220043 61 180 0.0 10.4 0.00 0.00 0.00 87 1006.5
20260506215529 61 175 1.7 10.4 0.00 0.00 0.00 86 1006.8
20260506215029 62 182 2.6 10.4 0.00 0.00 0.00 86 1006.8
20260506214545 62 234 1.7 8.7 0.00 0.00 0.00 86 1006.7
20260506214032 62 290 1.7 8.7 0.00 0.00 0.00 86 1006.9
20260506213533 62 180 1.7 6.1 0.00 0.00 0.00 87 1007.0
20260506213043 62 225 0.0 5.2 0.00 0.00 0.00 87 1006.9
20260506212528 62 87 0.9 5.2 0.00 0.00 0.00 86 1007.0
20260506212029 62 140 1.7 9.6 0.00 0.00 0.00 86 1007.0
20260506211541 61 0 1.7 9.6 0.00 0.00 0.00 86 1007.0
20260506211029 61 232 2.6 7.8 0.00 0.00 0.00 86 1007.0
20260506210529 62 128 0.9 6.1 0.00 0.00 0.00 86 1007.0
20260506210048 62 234 0.9 7.0 0.00 0.00 0.00 86 1007.0
20260506205533 62 144 1.7 8.7 0.00 0.00 0.00 85 1007.1
20260506205028 62 198 2.6 8.7 0.00 0.00 0.00 85 1007.2
20260506204544 62 180 0.9 5.2 0.00 0.00 0.00 85 1007.3
20260506204031 62 159 1.7 7.0 0.00 0.00 0.00 84 1007.3
20260506203532 62 171 0.9 7.8 0.00 0.00 0.00 84 1007.2
20260506203043 62 198 2.6 7.8 0.00 0.00 0.00 84 1007.3
20260506202530 63 204 0.9 2.6 0.00 0.00 0.00 84 1007.2
20260506202031 63 0 0.0 7.8 0.00 0.00 0.00 84 1007.2
20260506201542 63 234 1.7 7.8 0.00 0.00 0.00 83 1007.2
20260506201029 63 188 1.7 6.1 0.00 0.00 0.00 83 1007.1
20260506200529 63 258 0.0 6.1 0.00 0.00 0.00 83 1007.1
20260506200042 64 111 1.7 6.1 0.00 0.00 0.00 82 1006.9
20260506195533 64 191 0.9 7.8 0.00 0.00 0.00 81 1007.1
20260506195032 64 0 1.7 7.8 0.00 0.00 0.00 80 1007.0
20260506194547 65 140 1.7 5.2 0.00 0.00 0.00 79 1007.1
20260506194034 65 211 0.9 7.8 0.00 0.00 0.00 78 1007.4
20260506193529 66 171 0.9 7.8 0.00 0.00 0.00 77 1007.4
20260506193045 67 161 1.7 7.8 0.00 0.00 0.00 76 1007.3
20260506192530 67 223 0.0 4.3 0.00 0.00 0.00 75 1007.3
20260506192033 67 17 0.0 5.2 0.00 0.00 0.00 73 1007.2
20260506191542 68 140 0.9 7.0 0.00 0.00 0.00 71 1007.3
20260506191030 68 0 1.7 7.0 0.00 0.00 0.00 69 1007.1
20260506190530 68 177 1.7 7.0 0.00 0.00 0.00 69 1007.1
20260506190042 68 155 1.7 7.0 0.00 0.00 0.00 69 1007.2
20260506185530 69 220 0.9 6.1 0.00 0.00 0.00 68 1007.2
20260506185029 69 251 1.7 7.0 0.00 0.00 0.00 67 1007.2
20260506184550 70 184 1.7 7.0 0.00 0.00 0.00 66 1007.3
20260506184030 70 0 0.9 9.6 0.00 0.00 0.00 64 1007.2
20260506183530 71 242 2.6 9.6 0.00 0.00 0.00 62 1007.3
20260506183047 71 41 1.7 7.0 0.00 0.00 0.00 61 1007.3
20260506182528 71 159 0.9 5.2 0.00 0.00 0.00 61 1007.2
20260506182029 71 166 0.9 5.2 0.00 0.00 0.00 62 1007.3
20260506181541 71 0 0.9 7.0 0.00 0.00 0.00 61 1007.4
20260506181029 71 14 0.9 8.7 0.00 0.00 0.00 61 1007.3
20260506180530 72 147 1.7 9.6 0.00 0.00 0.00 61 1007.4
20260506180046 72 122 2.6 9.6 0.00 0.00 0.00 60 1007.4
20260506175531 72 209 1.7 9.6 0.00 0.00 0.00 60 1007.5
20260506175029 72 211 2.6 9.6 0.00 0.00 0.00 60 1007.4
20260506174545 72 0 3.5 7.8 0.00 0.00 0.00 60 1007.6
20260506174032 72 203 0.9 7.0 0.00 0.00 0.00 61 1007.5
20260506173529 72 207 2.6 7.8 0.00 0.00 0.00 61 1007.7
20260506173121 72 261 3.5 7.8 0.00 0.00 0.00 59 1007.8
20260506172530 72 149 1.7 6.1 0.00 0.00 0.00 61 1007.6
20260506172030 72 227 1.7 10.4 0.00 0.00 0.00 61 1007.8
20260506171556 72 217 1.7 11.3 0.00 0.00 0.00 60 1007.7
20260506171033 72 240 1.7 11.3 0.00 0.00 0.00 61 1007.7
20260506170529 71 229 2.6 11.3 0.00 0.00 0.00 61 1007.8
20260506170045 71 137 1.7 7.8 0.00 0.00 0.00 62 1008.0
20260506165529 71 161 1.7 7.8 0.00 0.00 0.00 62 1008.0
20260506165030 71 196 0.9 6.1 0.00 0.00 0.00 62 1008.1
20260506164541 71 90 2.6 5.2 0.00 0.00 0.00 62 1008.1
20260506164029 71 132 0.9 13.0 0.00 0.00 0.00 62 1008.3
20260506163532 71 198 1.7 13.0 0.00 0.00 0.00 61 1008.4
20260506163043 71 9 3.5 10.4 0.00 0.00 0.00 60 1008.5
20260506162530 72 212 2.6 7.8 0.00 0.00 0.00 60 1008.6
20260506162033 72 276 2.6 8.7 0.00 0.00 0.00 61 1008.5
20260506161544 72 190 2.6 8.7 0.00 0.00 0.00 60 1008.8
20260506161029 72 136 1.7 7.8 0.00 0.00 0.00 60 1008.7
20260506160529 72 205 0.9 9.6 0.00 0.00 0.00 60 1008.9
20260506160046 72 75 1.7 10.4 0.00 0.00 0.00 59 1008.9
20260506155529 72 138 2.6 10.4 0.00 0.00 0.00 60 1008.9
20260506155029 72 240 1.7 7.8 0.00 0.00 0.00 60 1009.0
20260506154550 72 217 1.7 7.8 0.00 0.00 0.00 60 1009.2
20260506154031 72 182 2.6 8.7 0.00 0.00 0.00 59 1009.3
20260506153530 72 182 1.7 9.6 0.00 0.00 0.00 60 1009.3
20260506153046 72 154 3.5 10.4 0.00 0.00 0.00 59 1009.4
20260506152529 72 208 2.6 10.4 0.00 0.00 0.00 60 1009.5
20260506152028 72 144 1.7 8.7 0.00 0.00 0.00 60 1009.5
20260506151549 73 163 1.7 8.7 0.00 0.00 0.00 61 1009.5
20260506151030 72 165 1.7 12.2 0.00 0.00 0.00 62 1009.4
20260506150533 72 175 2.6 12.2 0.00 0.00 0.00 62 1009.6
20260506150045 71 35 2.6 7.8 0.00 0.00 0.00 63 1009.7
20260506145530 71 249 3.5 7.8 0.00 0.00 0.00 63 1009.8
20260506145029 71 226 0.0 5.2 0.00 0.00 0.00 65 1009.7
20260506144543 70 201 0.9 6.1 0.00 0.00 0.00 64 1009.7
20260506144029 70 170 1.7 8.7 0.00 0.00 0.00 66 1009.6
20260506143530 70 192 2.6 8.7 0.00 0.00 0.00 66 1009.5
20260506143044 69 229 1.7 7.0 0.00 0.00 0.00 66 1009.6
20260506142529 69 273 1.7 7.0 0.00 0.00 0.00 66 1009.6
20260506142029 69 161 1.7 7.0 0.00 0.00 0.00 66 1009.5
20260506141541 69 153 1.7 7.0 0.00 0.00 0.00 69 1009.7
20260506141029 68 11 1.7 7.0 0.00 0.00 0.00 68 1009.6
20260506140529 68 150 1.7 7.0 0.00 0.00 0.00 69 1009.7
20260506140042 68 233 1.7 7.0 0.00 0.00 0.00 70 1009.8
20260506135530 67 150 1.7 4.3 0.00 0.00 0.00 70 1009.8
20260506135032 67 275 0.0 7.0 0.00 0.00 0.00 72 1009.7
20260506134545 66 121 1.7 9.6 0.00 0.00 0.00 72 1009.8
20260506134029 66 203 1.7 9.6 0.00 0.00 0.00 72 1010.0
20260506133529 66 97 1.7 5.2 0.00 0.00 0.00 73 1010.2
20260506133042 66 177 1.7 4.3 0.00 0.00 0.00 73 1010.2
20260506132533 66 233 0.9 4.3 0.00 0.00 0.00 73 1010.3
20260506132032 66 210 1.7 4.3 0.00 0.00 0.00 72 1010.2
20260506131549 66 223 0.9 6.1 0.00 0.00 0.00 73 1010.3
20260506131030 65 167 0.9 6.1 0.00 0.00 0.00 73 1010.2
20260506130529 65 161 1.7 7.0 0.00 0.00 0.00 72 1010.1
20260506130057 66 88 0.9 8.7 0.00 0.00 0.00 72 1010.2
20260506125532 66 162 0.9 9.6 0.00 0.00 0.00 72 1010.2
20260506125033 66 0 2.6 9.6 0.00 0.00 0.00 71 1010.1
20260506124547 66 167 1.7 7.8 0.00 0.00 0.00 73 1010.0
20260506124029 65 229 0.9 7.0 0.00 0.00 0.00 77 1010.2
20260506123529 63 177 0.9 7.8 0.00 0.00 0.00 77 1010.4
20260506123048 63 176 2.6 7.8 0.00 0.00 0.00 76 1010.4
20260506122528 63 225 1.7 7.0 0.00 0.00 0.00 76 1010.6
20260506122028 63 173 1.7 7.0 0.00 0.00 0.00 76 1010.3
20260506121544 63 238 0.9 7.8 0.00 0.00 0.00 77 1010.2
20260506121032 63 151 1.7 7.8 0.00 0.00 0.00 78 1010.2
20260506120531 62 236 1.7 7.8 0.00 0.00 0.00 77 1010.3
20260506120043 62 157 0.9 5.2 0.00 0.00 0.00 78 1010.5
20260506115530 62 153 0.9 6.1 0.00 0.00 0.00 78 1010.5
20260506115029 62 175 0.9 7.0 0.00 0.00 0.00 78 1010.6
20260506114541 62 190 0.9 7.0 0.00 0.00 0.00 78 1010.5
20260506114029 62 144 1.7 7.0 0.00 0.00 0.00 78 1010.7
20260506113528 62 138 0.9 4.3 0.00 0.00 0.00 78 1010.9
20260506113050 62 0 0.9 4.3 0.00 0.00 0.00 78 1010.8
20260506112529 62 259 0.9 6.1 0.00 0.00 0.00 78 1010.9
20260506112029 62 176 0.9 6.1 0.00 0.00 0.00 79 1010.5
20260506111547 62 226 1.7 6.1 0.00 0.00 0.00 79 1010.6
20260506111029 61 159 0.0 4.3 0.00 0.00 0.00 80 1010.6
20260506110531 61 152 0.0 7.0 0.00 0.00 0.00 80 1010.6
20260506110053 61 0 0.0 7.8 0.00 0.00 0.00 81 1010.6
20260506105529 60 174 1.7 7.8 0.00 0.00 0.00 80 1010.4
20260506105031 60 0 0.9 5.2 0.00 0.00 0.00 80 1010.5
20260506104551 60 177 0.9 7.0 0.00 0.00 0.00 80 1010.6
20260506104029 60 211 0.0 7.0 0.00 0.00 0.00 80 1010.7
20260506103529 60 217 0.9 5.2 0.00 0.00 0.00 80 1010.7
20260506103048 60 178 0.9 4.3 0.00 0.00 0.00 80 1010.8
20260506102530 60 186 0.9 3.5 0.00 0.00 0.00 80 1010.6
20260506102030 60 199 0.0 4.3 0.00 0.00 0.00 80 1010.6
20260506101551 60 0 0.9 7.8 0.00 0.00 0.00 80 1010.6
20260506101029 60 198 0.9 7.8 0.00 0.00 0.00 80 1010.5
20260506100529 60 211 0.9 6.1 0.00 0.00 0.00 80 1010.6
20260506095529 60 193 0.9 7.0 0.00 0.00 0.00 80 1010.4
20260506095033 60 217 0.9 5.2 0.00 0.00 0.00 80 1010.2
20260506094549 60 184 0.9 5.2 0.00 0.00 0.00 79 1010.3
20260506094027 60 171 0.9 5.2 0.00 0.00 0.00 79 1010.4
20260506093526 60 272 1.7 5.2 0.00 0.00 0.00 79 1010.4
20260506093047 60 176 0.9 7.8 0.00 0.00 0.00 78 1010.4
20260506092530 61 190 1.7 7.8 0.00 0.00 0.00 78 1010.4
20260506092029 61 168 0.9 4.3 0.00 0.00 0.00 78 1010.4
20260506091541 61 163 0.9 4.3 0.00 0.00 0.00 78 1010.4
20260506091037 61 140 0.9 5.2 0.00 0.00 0.00 77 1010.3
20260506090530 61 175 0.9 5.2 0.00 0.00 0.00 77 1010.4
20260506090042 61 181 0.9 4.3 0.00 0.00 0.00 77 1010.4